{"data":{"norad_id":64458,"epoch":"2026-09-20T23:21:45.202176Z","epoch_age_seconds":107525,"freshness":"FRESH","line1":"1 64458U 25130W   26263.97343984  .00011182  00000+0  34164-3 0  9997","line2":"2 64458  53.1594 259.2096 0001767 110.7853 249.3339 15.34393895 70634","mean_motion":15.34393895,"eccentricity":0.0001767,"inclination_deg":53.1594,"raan_deg":259.2096,"arg_perigee_deg":110.7853,"mean_anomaly_deg":249.3339,"bstar":0.00034164,"rev_number":7063,"period_min":93.848131479955,"perigee_km":461.5126059371,"apogee_km":463.93016529058,"semimajor_km":6840.8583856138,"source":"CELESTRAK","updated_at":"2026-09-21T09:00:35.356225Z"}}